Tracking 29892 objects as of 21-Nov-2024
HD Live streaming from Space Station
objects crossing your sky now

STARLINK-5657

Track STARLINK-5657 now!
10-day predictions
STARLINK-5657 is classified as:


NORAD ID: 55342
Int'l Code: 2023-013M
Perigee: 565.3 km
Apogee: 567.1 km
Inclination: 43.0 °
Period: 95.8 minutes
Semi major axis: 6937 km
RCS: Unknown
Launch date: January 26, 2023
Source: United States (US)
Launch site: AIR FORCE EASTERN TEST RANGE (AFETR)
Your satellite tracking list
Your tracking list is empty




NASA's NSSDC Master Catalog

Two Line Element Set (TLE):
1 55342U 23013M   24325.07735303  .00000575  00000-0  57631-4 0  9995
2 55342  43.0046 359.3970 0001329 267.6289  92.4401 15.02541773100319
Source of the keplerian elements: AFSPC